Location: Guayaquil
(2.1667°S, 79.9000°W)
Time: 11:30:15
(UTC-05:00)

AAUSAT CUBESAT 2 - Visible Passes

Search period start: 16 October 2018 00:00
Search period end: 26 October 2018 00:00
Orbit: 576 x 591 km, 97.5° (Epoch: 16 October)

Date Brightness Start Highest point End Pass type
(mag) Time Alt. Az. Time Alt. Az. Time Alt. Az.
16 Oct ? 19:20:32 10° S 19:24:39 90° W 19:28:45 10° NNW visible
17 Oct ? 19:26:41 10° S 19:30:47 72° WSW 19:34:52 10° NNW visible
18 Oct ? 19:32:53 10° S 19:36:55 56° WSW 19:40:57 10° NNW visible
19 Oct ? 19:39:07 10° S 19:43:03 45° WSW 19:46:58 10° NNW visible
20 Oct ? 19:45:24 10° SSW 19:49:10 36° WSW 19:52:57 10° NW visible
21 Oct ? 19:51:44 10° SSW 19:55:17 29° WSW 19:58:52 10° NW visible
22 Oct ? 19:58:07 10° SSW 20:01:25 24° WSW 20:04:44 10° NW visible
23 Oct ? 18:29:59 10° ESE 18:32:23 15° E 18:34:46 10° NE visible
23 Oct ? 20:04:34 10° SSW 20:07:32 19° WSW 20:10:30 10° NW visible
24 Oct ? 18:35:37 10° SE 18:38:30 19° E 18:41:24 10° NE visible
24 Oct ? 20:11:09 10° SW 20:13:39 16° WSW 20:16:10 10° WNW visible
25 Oct ? 18:41:22 10° SE 18:44:38 23° E 18:47:53 10° NNE visible
25 Oct ? 20:17:55 10° SW 20:19:46 13° WSW 20:21:38 10° WNW visible
